Change the Weather History Date:

Tuesday, November 26, 2013

  Actual Average Record
Temperature  
Mean Temperature 34 °F -  
Max Temperature 35 °F 52 °F 71 °F (1990)
Min Temperature 32 °F 34 °F 21 °F (2005)
Degree Days  
Heating Degree Days 32    
Moisture  
Dew Point 27 °F    
Average Humidity 82    
Maximum Humidity 100    
Minimum Humidity 35    
Precipitation  
Precipitation 0.91 in - - ()
Sea Level Pressure  
Sea Level Pressure 30.07 in    
Wind  
Wind Speed 5 mph (ESE)    
Max Wind Speed 12 mph    
Max Gust Speed -    
Visibility 6 miles    
Events Rain , Snow    
Averages and records for this station are not official NWS values.
T = Trace of Precipitation, MM = Missing Value Source: NWS Daily Summary

Daily Weather History Graph

Daily Weather History Graph

Search for Another Location

Airport or City:

Trip Planner

Search our weather history database for the weather conditions in past years. The results will help you decide how hot, cold, wet, or windy it might be!

Date:

Astronomy

Nov. 26, 2013 Rise Set
Actual Time 7:08 AM EST 4:51 PM EST
Civil Twilight 6:38 AM EST 5:21 PM EST
Nautical Twilight 6:05 AM EST 5:53 PM EST
Astronomical Twilight 5:33 AM EST 6:26 PM EST
Moon 12:12 AM EST (11/26) 12:54 PM EST (11/26)
Length of Visible Light 10h 42m
Length of Day
9h 43m
Last Quarter, 41% of the Moon is Illuminated
Nov 26
Last Quarter
Dec 2
New
Dec 9
First Quarter
Dec 17
Full
Dec 25
Last Quarter

Hourly Weather History & Observations

Time (EST) Temp. Windchill Dew Point Humidity Pressure Visibility Wind Dir Wind Speed Gust Speed Precip Events Conditions
12:15 AM 35.6 °F 29.2 °F 10.4 °F 35% 30.28 in 10.0 mi SSW 8.1 mph - N/A   Overcast
12:35 AM 35.6 °F 29.9 °F 10.4 °F 35% 30.27 in 10.0 mi SW 6.9 mph - N/A   Overcast
12:55 AM 35.6 °F 28.6 °F 10.4 °F 35% 30.27 in 10.0 mi SW 9.2 mph - N/A   Overcast
1:15 AM 35.6 °F 28.0 °F 12.2 °F 38% 30.27 in 10.0 mi SW 10.4 mph - N/A   Overcast
1:35 AM 35.6 °F 29.2 °F 12.2 °F 38% 30.25 in 10.0 mi SW 8.1 mph - N/A   Overcast
1:55 AM 33.8 °F 25.3 °F 19.4 °F 56% 30.26 in 10.0 mi SW 11.5 mph - N/A   Overcast
2:15 AM 33.8 °F 27.7 °F 19.4 °F 56% 30.25 in 10.0 mi SW 6.9 mph - N/A   Overcast
2:35 AM 33.8 °F 28.6 °F 19.4 °F 56% 30.25 in 10.0 mi SSW 5.8 mph - N/A   Overcast
2:55 AM 33.8 °F 29.6 °F 19.4 °F 56% 30.24 in 10.0 mi South 4.6 mph - N/A   Overcast
3:15 AM 33.8 °F 30.8 °F 19.4 °F 56% 30.23 in 10.0 mi WSW 3.5 mph - N/A   Overcast
3:35 AM 33.8 °F 30.8 °F 19.4 °F 56% 30.25 in 10.0 mi WSW 3.5 mph - N/A   Overcast
3:55 AM 33.8 °F - 19.4 °F 56% 30.23 in 10.0 mi Calm Calm - N/A   Overcast
4:15 AM 33.8 °F - 19.4 °F 56% 30.23 in 10.0 mi Calm Calm - N/A   Overcast
4:35 AM 33.8 °F 30.8 °F 19.4 °F 56% 30.22 in 10.0 mi SSW 3.5 mph - N/A   Overcast
4:55 AM 33.8 °F 30.8 °F 19.4 °F 56% 30.22 in 10.0 mi SSW 3.5 mph - N/A   Overcast
5:15 AM 33.8 °F - 19.4 °F 56% 30.23 in 10.0 mi Calm Calm - N/A   Overcast
5:35 AM 33.8 °F 30.8 °F 19.4 °F 56% 30.22 in 10.0 mi South 3.5 mph - N/A   Overcast
5:55 AM 33.8 °F 30.8 °F 19.4 °F 56% 30.22 in 10.0 mi SSE 3.5 mph - N/A   Overcast
6:15 AM 33.8 °F - 19.4 °F 56% 30.22 in 10.0 mi Calm Calm - N/A   Overcast
6:35 AM 33.8 °F - 19.4 °F 56% 30.22 in 10.0 mi Calm Calm - N/A   Overcast
6:55 AM 33.8 °F 28.6 °F 19.4 °F 56% 30.22 in 10.0 mi SSE 5.8 mph - N/A   Light Drizzle
7:15 AM 33.8 °F 28.6 °F 23.0 °F 65% 30.23 in 10.0 mi SSW 5.8 mph - N/A   Overcast
7:35 AM 32.0 °F 28.7 °F 26.6 °F 80% 30.23 in 3.0 mi SW 3.5 mph - N/A Rain Light Rain
7:55 AM 32.0 °F - 28.4 °F 87% 30.22 in 7.0 mi Calm Calm - N/A   Overcast
8:15 AM 32.0 °F 28.7 °F 28.4 °F 87% 30.22 in 10.0 mi South 3.5 mph - N/A   Overcast
8:35 AM 32.0 °F - 28.4 °F 87% 30.21 in 7.0 mi Calm Calm - N/A Rain Light Rain
8:55 AM 32.0 °F - 28.4 °F 87% 30.22 in 10.0 mi Calm Calm - N/A Rain Light Rain
9:15 AM 32.0 °F - 28.4 °F 87% 30.21 in 4.0 mi Calm Calm - N/A Rain Light Rain
9:35 AM 32.0 °F - 30.2 °F 93% 30.22 in 2.5 mi Calm Calm - 0.02 in Rain Light Rain
9:55 AM 32.0 °F 28.7 °F 30.2 °F 93% 30.21 in 4.0 mi ESE 3.5 mph - 0.03 in Rain Light Rain
10:15 AM 32.0 °F 28.7 °F 30.2 °F 93% 30.20 in 5.0 mi East 3.5 mph - N/A Rain Light Rain
10:35 AM 32.0 °F - 32.0 °F 100% 30.20 in 5.0 mi Calm Calm - N/A Rain Light Rain
10:55 AM 32.0 °F 28.7 °F 32.0 °F 100% 30.18 in 5.0 mi ENE 3.5 mph - 0.01 in Rain Light Rain
11:15 AM 32.0 °F 28.7 °F 32.0 °F 100% 30.16 in 5.0 mi East 3.5 mph - N/A   Drizzle
11:35 AM 32.0 °F - 32.0 °F 100% 30.16 in 7.0 mi Calm Calm - 0.01 in   Drizzle
11:55 AM 33.8 °F 30.8 °F 32.0 °F 93% 30.15 in 7.0 mi East 3.5 mph - 0.01 in   Drizzle
12:15 PM 33.8 °F - 32.0 °F 93% 30.13 in 4.0 mi Calm Calm - N/A   Drizzle
12:35 PM 32.0 °F 28.7 °F 32.0 °F 100% 30.12 in 4.0 mi ENE 3.5 mph - 0.01 in Rain Light Rain
12:55 PM 33.8 °F - 32.0 °F 93% 30.11 in 4.0 mi Calm Calm - 0.01 in Rain Light Rain
1:15 PM 32.0 °F 27.5 °F 32.0 °F 100% 30.10 in 4.0 mi ESE 4.6 mph - N/A Rain Rain
1:35 PM 33.8 °F 29.6 °F 32.0 °F 93% 30.09 in 5.0 mi East 4.6 mph - 0.01 in   Drizzle
1:55 PM 33.8 °F 29.6 °F 32.0 °F 93% 30.08 in 4.0 mi ESE 4.6 mph - 0.01 in   Drizzle
2:15 PM 32.0 °F 25.6 °F 32.0 °F 100% 30.06 in 3.0 mi ESE 6.9 mph - N/A   Drizzle
2:35 PM 32.0 °F 25.6 °F 32.0 °F 100% 30.06 in 3.0 mi East 6.9 mph - N/A Rain Light Rain
2:55 PM 32.0 °F 26.4 °F 32.0 °F 100% 30.05 in 2.5 mi ESE 5.8 mph - 0.01 in Rain Light Rain
3:15 PM 32.0 °F 25.6 °F 32.0 °F 100% 30.03 in 4.0 mi ESE 6.9 mph - 0.01 in Rain Light Rain
3:35 PM 32.0 °F 25.6 °F 32.0 °F 100% 30.03 in 4.0 mi ESE 6.9 mph - 0.02 in Rain Light Rain
3:55 PM 32.0 °F 28.7 °F 32.0 °F 100% 30.02 in 3.0 mi East 3.5 mph - 0.03 in Rain Light Rain
4:15 PM 33.8 °F 29.6 °F 32.0 °F 93% 30.02 in 2.5 mi East 4.6 mph - 0.03 in Rain Rain
4:35 PM 33.8 °F 30.8 °F 32.0 °F 93% 30.00 in 2.5 mi ENE 3.5 mph - 0.06 in Rain Rain
4:55 PM 33.8 °F 30.8 °F 32.0 °F 93% 29.99 in 4.0 mi ENE 3.5 mph - 0.09 in Rain Rain
5:15 PM 33.8 °F 30.8 °F 32.0 °F 93% 29.98 in 3.0 mi ENE 3.5 mph - 0.02 in Rain Rain
5:35 PM 33.8 °F 28.6 °F 32.0 °F 93% 29.97 in 3.0 mi ENE 5.8 mph - 0.04 in Rain Rain
5:55 PM 33.8 °F 29.6 °F 32.0 °F 93% 29.96 in 2.0 mi NE 4.6 mph - 0.10 in Snow Light Snow
6:15 PM 33.8 °F 30.8 °F 32.0 °F 93% 29.93 in 2.5 mi ENE 3.5 mph - 0.04 in   Overcast
6:35 PM 32.0 °F 25.6 °F 32.0 °F 100% 29.90 in 3.0 mi NE 6.9 mph - 0.08 in Rain Rain
6:55 PM 32.0 °F 25.6 °F 32.0 °F 100% 29.88 in 2.5 mi NE 6.9 mph - 0.10 in Rain Rain
7:15 PM 32.0 °F 27.5 °F 32.0 °F 100% 29.86 in 3.0 mi NNE 4.6 mph - 0.03 in Rain Rain
7:35 PM 32.0 °F 26.4 °F 32.0 °F 100% 29.83 in 2.0 mi North 5.8 mph - 0.07 in Rain Light Rain
7:55 PM 32.0 °F 28.7 °F 32.0 °F 100% 29.82 in 2.0 mi North 3.5 mph - 0.14 in Rain Heavy Rain
8:15 PM 32.0 °F 28.7 °F 32.0 °F 100% 29.81 in 2.0 mi North 3.5 mph - 0.04 in Rain Rain
8:35 PM 32.0 °F 24.8 °F 32.0 °F 100% 29.82 in 2.0 mi NW 8.1 mph - 0.10 in Rain Light Rain
8:55 PM 32.0 °F 25.6 °F 32.0 °F 100% 29.80 in 2.0 mi NNW 6.9 mph - 0.15 in Rain Rain
9:15 PM 33.8 °F 29.6 °F 32.0 °F 93% 29.78 in 2.5 mi NW 4.6 mph - 0.04 in Rain Rain
9:35 PM 33.8 °F 27.0 °F 32.0 °F 93% 29.79 in 2.5 mi WNW 8.1 mph - 0.10 in Rain Rain
9:55 PM 33.8 °F 28.6 °F 32.0 °F 93% 29.76 in 2.0 mi NNW 5.8 mph - 0.13 in Rain Heavy Rain
10:15 PM 33.8 °F 30.8 °F 33.8 °F 100% 29.75 in 2.0 mi North 3.5 mph - 0.03 in Rain Rain
10:35 PM 33.8 °F 30.8 °F 33.8 °F 100% 29.71 in 2.0 mi NNW 3.5 mph - 0.07 in   Overcast
10:55 PM 33.8 °F - 33.8 °F 100% 29.70 in 2.5 mi Calm Calm - 0.08 in Rain Heavy Rain
11:15 PM 33.8 °F - 33.8 °F 100% 29.69 in 2.5 mi Calm Calm - 0.01 in Rain Heavy Rain
11:35 PM 33.8 °F - 33.8 °F 100% 29.66 in 3.0 mi Calm Calm - 0.01 in   Drizzle
11:55 PM 33.8 °F - 33.8 °F 100% 29.65 in 3.0 mi Calm Calm - 0.01 in   Drizzle